Madison, WI

3:48 PM CDT on September 26, 2017 (GMT -0500)
Dane County Regional-Truax

Weather History for KMSN - April, 2012

Change the Weather History Date:

Thursday, April 12, 2012

  Actual Average Record
Temperature  
Mean Temperature 49 °F 45 °F  
Max Temperature 62 °F 56 °F 86 °F (1887)
Min Temperature 35 °F 35 °F 17 °F (1939)
Degree Days  
Heating Degree Days 16 20  
Month to date heating degree days 218 266  
Since 1 July heating degree days 5339 6715  
Cooling Degree Days 0 0  
Month to date cooling degree days 0 0  
Year to date cooling degree days 26 0  
Moisture  
Dew Point 28 °F    
Average Humidity 49    
Maximum Humidity 70    
Minimum Humidity 27    
Precipitation  
Precipitation 0.00 in 0.12 in 1.41 in (1991)
Month to date precipitation 0.02 1.31  
Year to date precipitation 5.06 6.19  
Snow  
Snow 0.00 in 0.10 in 2.60 in (1997)
Month to date snowfall 0.0 1.5  
Since 1 July snowfall 31.4 49.6  
Snow Depth 0.00 in    
Sea Level Pressure  
Sea Level Pressure 30.21 in    
Wind  
Wind Speed 5 mph (South)    
Max Wind Speed 13 mph    
Max Gust Speed 16 mph    
Visibility 10 miles    
Events      
T = Trace of Precipitation, MM = Missing Value Source: NWS Daily Summary

Daily Weather History Graph

Daily Weather History Graph

Search for Another Location

Airport or City:

Trip Planner

Search our weather history database for the weather conditions in past years. The results will help you decide how hot, cold, wet, or windy it might be!

Date:

Astronomy

Apr. 12, 2012 Rise Set
Actual Time 6:19 AM CDT 7:37 PM CDT
Civil Twilight 5:50 AM CDT 8:06 PM CDT
Nautical Twilight 5:14 AM CDT 8:42 PM CDT
Astronomical Twilight 4:37 AM CDT 9:19 PM CDT
Moon 1:30 AM CDT (4/12) 11:09 AM CDT (4/12)
Length of Visible Light 14h 16m
Length of Day
13h 17m
Waning Gibbous, 58% of the Moon is Illuminated
Apr 12
Waning Gibbous
Apr 13
Last Quarter
Apr 21
New
Apr 29
First Quarter
May 5
Full

Hourly Weather History & Observations

Time (CDT) Temp. Windchill Dew Point Humidity Pressure Visibility Wind Dir Wind Speed Gust Speed Precip Events Conditions
12:53 AM 41.0 °F 35.2 °F 28.0 °F 60% 30.25 in 10.0 mi South 9.2 mph - N/A   Clear
1:53 AM 41.0 °F 38.0 °F 28.0 °F 60% 30.25 in 10.0 mi SSW 4.6 mph - N/A   Clear
2:53 AM 39.9 °F 36.7 °F 27.0 °F 60% 30.25 in 10.0 mi SSW 4.6 mph - N/A   Clear
3:53 AM 39.0 °F - 27.0 °F 62% 30.25 in 10.0 mi Calm Calm - N/A   Clear
4:53 AM 39.9 °F 37.8 °F 27.0 °F 60% 30.26 in 10.0 mi SSW 3.5 mph - N/A   Clear
5:53 AM 36.0 °F - 26.1 °F 67% 30.27 in 10.0 mi Calm Calm - N/A   Clear
6:53 AM 36.0 °F - 27.0 °F 70% 30.28 in 10.0 mi Calm Calm - N/A   Clear
7:53 AM 44.1 °F 41.5 °F 28.0 °F 53% 30.28 in 10.0 mi SSW 4.6 mph - N/A   Clear
8:53 AM 46.9 °F - 27.0 °F 46% 30.27 in 10.0 mi SW 5.8 mph - N/A   Clear
9:53 AM 51.1 °F - 28.9 °F 43% 30.26 in 10.0 mi Variable 4.6 mph - N/A   Clear
10:53 AM 53.1 °F - 27.0 °F 37% 30.24 in 10.0 mi WSW 5.8 mph - N/A   Clear
11:53 AM 55.0 °F - 28.0 °F 35% 30.22 in 10.0 mi Variable 4.6 mph - N/A   Partly Cloudy
12:53 PM 55.9 °F - 26.1 °F 32% 30.20 in 10.0 mi Variable 4.6 mph - N/A   Partly Cloudy
1:53 PM 59.0 °F - 28.9 °F 32% 30.18 in 10.0 mi Variable 6.9 mph - N/A   Partly Cloudy
2:53 PM 60.1 °F - 28.0 °F 30% 30.16 in 10.0 mi West 3.5 mph - N/A   Partly Cloudy
3:53 PM 60.1 °F - 26.1 °F 27% 30.14 in 10.0 mi Calm Calm - N/A   Partly Cloudy
4:53 PM 61.0 °F - 27.0 °F 27% 30.13 in 10.0 mi SSW 6.9 mph - N/A   Partly Cloudy
5:53 PM 60.1 °F - 27.0 °F 28% 30.14 in 10.0 mi South 6.9 mph - N/A   Partly Cloudy
6:53 PM 57.9 °F - 26.1 °F 30% 30.14 in 10.0 mi South 3.5 mph - N/A   Partly Cloudy
7:53 PM 48.9 °F - 28.9 °F 46% 30.14 in 10.0 mi East 4.6 mph - N/A   Clear
8:53 PM 48.0 °F - 28.9 °F 48% 30.16 in 10.0 mi SE 4.6 mph - N/A   Clear
9:53 PM 48.0 °F - 28.9 °F 48% 30.17 in 10.0 mi ESE 11.5 mph - N/A   Clear
10:53 PM 46.9 °F - 30.9 °F 54% 30.17 in 10.0 mi SE 6.9 mph - N/A   Clear
11:53 PM 46.9 °F - 30.0 °F 52% 30.17 in 10.0 mi SSE 6.9 mph - N/A   Clear